This is the latest recevied weather packets stored in our database for station/object DL0GY-13. If no packets are shown the sender has not sent any weather packets the latest 10 day(s).
| Time | Temp. | Humidity | Pressure | Rain* | Wind** | Luminosity | Snow |
|---|---|---|---|---|---|---|---|
| 1777551634 | 20.56° C | 24% | 1027.2 hPa | 0 mm | - | - | - |
| 1777551035 | 22.78° C | 22% | 1027.3 hPa | 0 mm | - | - | - |
| 1777549834 | 23.33° C | 22% | 1027.5 hPa | 0 mm | - | - | - |
| 1777549234 | 22.78° C | 23% | 1027.5 hPa | 0 mm | - | - | - |
| 1777548634 | 22.78° C | 22% | 1027.6 hPa | 0 mm | - | - | - |
| 1777548034 | 22.78° C | 23% | 1027.7 hPa | 0 mm | - | - | - |
| 1777547435 | 21.67° C | 23% | 1027.7 hPa | 0 mm | - | - | - |
| 1777546834 | 21.67° C | 23% | 1028 hPa | 0 mm | - | - | - |
| 1777546234 | 21.67° C | 23% | 1028 hPa | 0 mm | - | - | - |
| 1777545034 | 21.11° C | 22% | 1028.1 hPa | 0 mm | - | - | - |
| 1777544435 | 20.56° C | 22% | 1028.3 hPa | 0 mm | - | - | - |
| 1777543835 | 20.56° C | 23% | 1028.4 hPa | 0 mm | - | - | - |
| 1777543235 | 20.56° C | 22% | 1028.5 hPa | 0 mm | - | - | - |
| 1777542035 | 21.67° C | 22% | 1028.5 hPa | 0 mm | - | - | - |
| 1777541435 | 20.56° C | 22% | 1028.6 hPa | 0 mm | - | - | - |
| 1777540835 | 20.56° C | 22% | 1028.8 hPa | 0 mm | - | - | - |
| 1777540235 | 19.44° C | 23% | 1028.9 hPa | 0 mm | - | - | - |
| 1777539634 | 18.89° C | 23% | 1029.2 hPa | 0 mm | - | - | - |
| 1777538434 | 18.89° C | 24% | 1029.3 hPa | 0 mm | - | - | - |
| 1777537835 | 20° C | 23% | 1029.4 hPa | 0 mm | - | - | - |
| 1777537235 | 20.56° C | 23% | 1029.3 hPa | 0 mm | - | - | - |
| 1777536634 | 21.11° C | 27% | 1029.6 hPa | 0 mm | - | - | - |
| 1777536034 | 19.44° C | 30% | 1029.5 hPa | 0 mm | - | - | - |
| 1777535435 | 17.78° C | 31% | 1029.6 hPa | 0 mm | - | - | - |
| 1777534835 | 17.22° C | 32% | 1029.8 hPa | 0 mm | - | - | - |
* Rain latest hour (hover to see other rain measurements)
** Current wind speed in m/s (hover to see current wind gust speed)